Home   Weather   Thule Air Base   Past weeks

Flag for Greenland Past Weather in Thule Air Base, Greenland — Yesterday and Last 2 Weeks

Now
34 °F

Clear.


Feels Like: 34 °F
Forecast: 17 / 32 °F
Wind: No wind

Location: Thule A. B.

Current Time: Sep 28, 2016 at 2:20:32 AM

Latest Report: Sep 28, 2016 at 1:58 AM


Visibility: N/A

Pressure: 29.62 "Hg

Humidity: 75%

Dew Point: 27 °F

Location of Thule Air BaseLocation

Past Weather in Thule Air Base — Graph

°F

Thule Air Base Temperature Yesterday

Maximum temperature yesterday: 36 °F (at 4:58 AM)
Minimum temperature yesterday: 32 °F (at 12:00 AM)
Average temperature yesterday: 34 °F

High & Low Weather Summary for the Past Weeks

 TemperatureHumidityPressure
High36 °F (Sep 14, 9:58 AM)93% (Sep 15, 8:58 PM)29.99 "Hg (Sep 15, 8:58 PM)
Low5 °F (Sep 17, 9:58 PM)41% (Sep 25, 2:58 PM)29.15 "Hg (Sep 14, 2:58 PM)
Average26 °F75%29.68 "Hg
* Reported Sep 13 12:58 AM — Sep 28 12:58 AM, Thule Air Base, Weather by CustomWeather, © 2016

Note: Actual official high and low records may vary slightly from our data, if they occured in-between our weather recording intervals... More about our weather records

Advertising

Thule Air Base Weather History for the Previous 24 Hours

Scroll right to see more
 ConditionsComfort  
Time TempWeatherWind HumidityBarometerVisibility
12:58 AM
Wed, Sep 28
34 °FClear.3 mph75%29.62 "HgN/A
11:58 PM
Tue, Sep 27
34 °FPassing clouds.7 mph76%29.61 "HgN/A
10:58 PM34 °FPassing clouds.21 mph81%29.61 "HgN/A
9:58 PM34 °FPassing clouds.18 mph81%29.62 "HgN/A
8:58 PM34 °FLight rain. Passing clouds.17 mph81%29.62 "HgN/A
7:58 PM34 °FPartly sunny.25 mph81%29.62 "HgN/A
7:04 PM32 °FOvercast.25 mph87%29.67 "Hg2 mi
6:58 PM34 °FLight snow. Overcast.24 mph81%29.62 "Hg2 mi
5:58 PM34 °FLight rain. Overcast.24 mph87%29.62 "Hg2 mi
4:58 PM34 °FFog.22 mph81%29.62 "Hg5 mi
4:04 PM32 °FLight snow. Overcast.15 mph87%29.69 "Hg2 mi
3:59 PM32 °FLight snow. Overcast.16 mph87%29.69 "Hg2 mi
2:58 PM32 °FLight snow. Ice fog.1 mph93%29.66 "Hg2 mi
2:00 PM32 °FLight snow. Ice fog.5 mph93%29.70 "Hg4 mi
12:58 PM34 °FLight snow. Fog.9 mph87%29.67 "Hg3 mi
12:01 PM34 °FLight rain. Overcast.12 mph81%29.72 "Hg2 mi
11:58 AM34 °FLight rain. Overcast.8 mph75%29.67 "Hg2 mi
11:04 AM34 °FLight rain. Overcast.31 mph81%29.71 "Hg2 mi
10:59 AM34 °FLight rain. Overcast.31 mph75%29.71 "Hg2 mi
9:58 AM34 °FPartly sunny.33 mph75%29.66 "Hg6 mi
8:58 AM36 °FSunny.32 mph70%29.67 "Hg6 mi
7:58 AM34 °FPassing clouds.33 mph75%29.67 "Hg5 mi
6:58 AM34 °FClear.33 mph75%29.67 "HgN/A
5:58 AM36 °FPassing clouds.31 mph70%29.70 "HgN/A
4:58 AM36 °FPartly cloudy.28 mph70%29.70 "HgN/A
3:58 AM35 °FClear.25 mph71%29.70 "HgN/A
2:58 AM34 °FClear.21 mph75%29.72 "HgN/A
Weather by CustomWeather, © 2016

See weather overviewHow to use our weather pages